Погода в Ильинском

Россия / Костромская область     57°38′51″N   40°55′44″E
темп.,
°C
ветер,
м/с
пор.,
м/с
влажн.,
%
обл.,
%
осадки,
мм/ч
давл.,
гПа
погр.,
м
20 сентября, пн
пн2000:00+2всв51282100 0.0 1027340
03:00+2всв51280100 0.0 1027392
06:00+2в61377100 0.0 1027464
09:00+4в71367100 0.0 1027607
12:00+6в71158100 0.0 1026885
15:00+8в71051100 0.0 10261115
18:00+7в61155100 0.0 1025899
21:00+6в61359100 0.0 1025735
21 сентября, вт
вт2100:00+5в61363100 0.0 1024584
03:00+4в5136899 0.0 1023507
06:00+4в61369100 0.0 1022512
09:00+5в61368100 0.1 1022770
12:00+5в61283100 0.8 1021960
15:00+6в61379100 0.9 1020811
18:00+6в61381100 0.4 1020781
21:00+6в61375100 0.7 1019726
22 сентября, ср
ср2200:00+6в61275100 0.3 1018616
03:00+5всв51283100 1.2 1017517
06:00+5всв61379100 0.2 1017520
09:00+6всв61477100 0.5 1016646
12:00+5всв61385100 1.1 1016728
15:00+5в61388100 1.9 1017789
18:00+6в51289100 0.6 1017699
21:00+7в5119098 0.6 1017503
23 сентября, чт
чт2300:00+7всв4109298 0.0 1017409
03:00+7в41094100 0.0 1016422
06:00+7в41096100 0.0 1016458
09:00+9юв5992100 0.0 1017603
12:00+11ююв6965100 0.1 10171171
15:00+12ююв5861100 0.1 10171181
18:00+9юв2277100 0.0 101727
21:00+9вюв3786100 0.3 1017216
24 сентября, пт
пт2400:00+9вюв2496100 0.9 1016115
03:00+9ююв1296100 0.9 101561
06:00+8ю2496100 0.6 1014167
09:00+9ю4787100 0.6 1014480
12:00+10ююв4785100 0.3 1012815
15:00+8ююв4891100 1.4 1011471
18:00+8юв489439 0.4 1010297
21:00+6ююв389697 0.4 1010228